Flag for Germany Weather past 2 weeks in Bad Oeynhausen, North Rhine-Westphalia, Germany

Now
34 °F

Chilly.


Feels Like: 31 °F
Forecast: 31 / 45 °F
Wind: 3 mph from West

Location: Bueckeburg

Current Time: Feb 28, 2015 at 12:04:19 AM

Latest Report: Feb 27, 2015 at 11:20 PM


Visibility: 6 mi

Pressure: 30.09 "Hg

Humidity: 87%

Dew point: 30 °F

Location of Bad OeynhausenLocation

Historic Weather in Bad Oeynhausen — Graph

°F

Bad Oeynhausen temperature yesterday

Maximum temperature yesterday: 45 °F (at 12:20 AM)
Minimum temperature yesterday: 36 °F (at 10:20 PM)
Average temperature yesterday: 41 °F

Past Weeks' High & Low Weather Summary

 TemperatureHumidityPressure
High52 °F (Feb 14, 3:20 PM)100% (Feb 13, 3:20 AM)30.74 "Hg (Feb 13, 3:20 AM)
Low27 °F (Feb 13, 3:20 AM)53% (Feb 18, 4:20 PM)29.30 "Hg (Feb 21, 6:20 AM)
Average38 °F80%29.97 "Hg
* Reported Feb 12 10:20 PM — Feb 27 10:20 PM, Bad Oeynhausen, Weather by CustomWeather, © 2015

Note: Actual official high and low records may vary slightly from our data, if they occured in-between our weather recording intervals... More about our weather records

Advertising

Bad Oeynhausen weather history for previous 24 hours

 ConditionsComfort  
Time TempWeatherWind HumidityBarometerVisibility
10:20 PM
Fri, Feb 27
36 °FChilly.5 mph87%30.09 "Hg6 mi
9:20 PM37 °FChilly.6 mph81%30.09 "Hg6 mi
8:20 PM39 °FChilly.6 mph81%30.07 "Hg6 mi
7:20 PM37 °FPartly cloudy.1 mph93%30.04 "HgN/A
6:20 PM39 °FPassing clouds.2 mph87%30.01 "HgN/A
5:20 PM41 °FBroken clouds.7 mph81%30.01 "HgN/A
4:20 PM41 °FBroken clouds.6 mph87%29.98 "Hg5 mi
3:20 PM41 °FBroken clouds.6 mph81%29.95 "HgN/A
2:20 PM41 °FRain. Fog.6 mph93%29.92 "Hg3 mi
2:02 PM41 °FLight rain. More clouds than sun.9 mph87%29.92 "Hg4 mi
1:20 PM43 °FLight rain. Broken clouds.9 mph87%29.92 "Hg5 mi
12:20 PM41 °FLight rain. Broken clouds.7 mph93%29.89 "Hg5 mi
11:20 AM41 °FLight rain. Partly sunny.7 mph93%29.89 "Hg5 mi
10:20 AM41 °FLight rain. Partly sunny.7 mph87%29.86 "Hg5 mi
9:20 AM41 °FRain. Fog.5 mph93%29.83 "Hg3 mi
8:20 AM39 °FRain. Mostly cloudy.5 mph93%29.83 "Hg4 mi
7:20 AM39 °FRain. Mostly cloudy.6 mph93%29.80 "Hg4 mi
6:20 AM39 °FRain. Overcast.9 mph93%29.77 "Hg5 mi
5:20 AM41 °FLight rain. Overcast.10 mph87%29.77 "Hg6 mi
4:20 AM41 °FLight rain. Mostly cloudy.12 mph81%29.77 "HgN/A
3:20 AM41 °FLight rain. Overcast.12 mph81%29.77 "Hg6 mi
2:20 AM43 °FLight rain. Passing clouds.15 mph71%29.80 "Hg4 mi
1:20 AM45 °FLight rain. Passing clouds.10 mph66%29.80 "HgN/A
12:20 AM45 °FLight rain. Mostly cloudy.13 mph66%29.80 "HgN/A
Weather by CustomWeather, © 2015

See weather overviewHow to use our weather pages